EN

Hourly Weather Bolshoe Ozerevo

Today, 28 October, Wednesday

Time Temperature Precipitation Wind Pressure Humidity
00:00 +10°C° 0.1 mm 5 mps 752 mmHg 85%
01:00 +10°C° 0.1 mm 5 mps 752 mmHg 86%
02:00 +10°C° 0 mm 5 mps 751 mmHg 86%
03:00 +10°C° 0.2 mm 5 mps 751 mmHg 86%
04:00 +10°C° 0.2 mm 5 mps 751 mmHg 87%
05:00 +11°C° 0.2 mm 6 mps 750 mmHg 87%
06:00 +10°C° 1.1 mm 5 mps 751 mmHg 86%
07:00 +10°C° 1.1 mm 4 mps 752 mmHg 86%
08:00 +9°C° 0 mm 3 mps 753 mmHg 85%
09:00 +9°C° 0 mm 3 mps 753 mmHg 83%
10:00 +10°C° 0 mm 3 mps 754 mmHg 80%
11:00 +10°C° 0 mm 3 mps 754 mmHg 77%
12:00 +11°C° 0 mm 3 mps 755 mmHg 76%
13:00 +11°C° 0 mm 3 mps 755 mmHg 76%
14:00 +11°C° 0 mm 3 mps 755 mmHg 75%
15:00 +10°C° 0 mm 3 mps 755 mmHg 79%
16:00 +9°C° 0 mm 2 mps 755 mmHg 83%
17:00 +9°C° 0 mm 2 mps 755 mmHg 86%
18:00 +8°C° 0 mm 2 mps 755 mmHg 88%
19:00 +8°C° 0 mm 3 mps 755 mmHg 91%
20:00 +8°C° 0 mm 3 mps 755 mmHg 93%
21:00 +8°C° 0 mm 3 mps 755 mmHg 94%
22:00 +8°C° 0 mm 2 mps 755 mmHg 95%
23:00 +8°C° 0 mm 2 mps 755 mmHg 96%

Tomorrow, 29 October, Thursday

Time Temperature Precipitation Wind Pressure Humidity
00:00 +9°C° 0 mm 2 mps 754 mmHg 96%
01:00 +9°C° 0 mm 2 mps 754 mmHg 96%
02:00 +9°C° 0 mm 2 mps 754 mmHg 97%
03:00 +9°C° 0 mm 2 mps 753 mmHg 96%
04:00 +10°C° 0 mm 3 mps 753 mmHg 95%
05:00 +10°C° 0 mm 3 mps 753 mmHg 94%
06:00 +10°C° 0 mm 3 mps 753 mmHg 93%
07:00 +10°C° 0 mm 3 mps 753 mmHg 93%
08:00 +10°C° 0 mm 3 mps 753 mmHg 93%
09:00 +10°C° 0 mm 2 mps 753 mmHg 91%
10:00 +10°C° 0 mm 2 mps 753 mmHg 90%
11:00 +10°C° 0 mm 2 mps 753 mmHg 88%
12:00 +12°C° 0.1 mm 2 mps 753 mmHg 89%
13:00 +12°C° 0.1 mm 2 mps 753 mmHg 91%
14:00 +12°C° 0.1 mm 1 mps 753 mmHg 92%
15:00 +10°C° 0.3 mm 2 mps 753 mmHg 93%
16:00 +10°C° 0.3 mm 2 mps 753 mmHg 94%
17:00 +10°C° 0.3 mm 2 mps 753 mmHg 95%
18:00 +10°C° 0.2 mm 2 mps 753 mmHg 95%
19:00 +10°C° 0.2 mm 2 mps 753 mmHg 95%
20:00 +10°C° 0.2 mm 2 mps 753 mmHg 95%
21:00 +10°C° 0.2 mm 2 mps 753 mmHg 95%
22:00 +10°C° 0.2 mm 2 mps 753 mmHg 96%
23:00 +11°C° 0.2 mm 1 mps 753 mmHg 96%

Day after tomorrow, 30 October, Friday

Time Temperature Precipitation Wind Pressure Humidity
00:00 +10°C° 0 mm 1 mps 753 mmHg 96%
01:00 +10°C° 0 mm 1 mps 753 mmHg 97%
02:00 +10°C° 0 mm 1 mps 753 mmHg 97%
03:00 +10°C° 0 mm 1 mps 753 mmHg 97%
04:00 +8°C° 0 mm 0 mps 753 mmHg 97%
05:00 +8°C° 0 mm 0 mps 753 mmHg 97%
06:00 +8°C° 0 mm 0 mps 753 mmHg 97%
07:00 +8°C° 0 mm 0 mps 753 mmHg 97%
08:00 +8°C° 0 mm 0 mps 753 mmHg 97%
09:00 +9°C° 0 mm 0 mps 753 mmHg 95%
10:00 +9°C° 0 mm 0 mps 753 mmHg 93%
11:00 +10°C° 0 mm 0 mps 753 mmHg 91%
12:00 +10°C° 0 mm 0 mps 753 mmHg 91%
13:00 +10°C° 0 mm 0 mps 753 mmHg 90%
14:00 +10°C° 0 mm 0 mps 753 mmHg 90%
15:00 +10°C° 0.1 mm 0 mps 753 mmHg 92%
16:00 +10°C° 0.1 mm 1 mps 754 mmHg 94%
17:00 +10°C° 0.1 mm 1 mps 754 mmHg 96%
18:00 +10°C° 0.1 mm 1 mps 754 mmHg 96%
19:00 +9°C° 0.1 mm 1 mps 754 mmHg 96%
20:00 +9°C° 0.1 mm 1 mps 754 mmHg 96%
21:00 +9°C° 0.1 mm 1 mps 755 mmHg 96%
22:00 +9°C° 0.1 mm 1 mps 755 mmHg 96%
23:00 +9°C° 0.1 mm 1 mps 755 mmHg 96%

31 October, Saturday

Time Temperature Precipitation Wind Pressure Humidity
00:00 +9°C° 0 mm 1 mps 755 mmHg 96%
01:00 +9°C° 0 mm 1 mps 756 mmHg 96%
02:00 +9°C° 0 mm 1 mps 756 mmHg 96%
03:00 +8°C° 0 mm 1 mps 757 mmHg 95%
04:00 +8°C° 0 mm 1 mps 757 mmHg 95%
05:00 +7°C° 0 mm 1 mps 757 mmHg 95%
06:00 +7°C° 0 mm 1 mps 758 mmHg 94%
07:00 +7°C° 0 mm 1 mps 758 mmHg 93%
08:00 +7°C° 0 mm 1 mps 759 mmHg 93%
09:00 +8°C° 0 mm 1 mps 760 mmHg 88%
10:00 +9°C° 0 mm 1 mps 760 mmHg 84%
11:00 +10°C° 0 mm 1 mps 761 mmHg 79%
12:00 +11°C° 0 mm 1 mps 761 mmHg 78%
13:00 +11°C° 0 mm 1 mps 761 mmHg 78%
14:00 +11°C° 0 mm 1 mps 762 mmHg 77%
15:00 +10°C° 0 mm 1 mps 762 mmHg 82%
16:00 +9°C° 0 mm 1 mps 762 mmHg 87%
17:00 +8°C° 0 mm 1 mps 763 mmHg 91%
18:00 +8°C° 0 mm 1 mps 763 mmHg 92%
19:00 +7°C° 0 mm 1 mps 763 mmHg 93%
20:00 +7°C° 0 mm 1 mps 764 mmHg 94%
21:00 +7°C° 0 mm 1 mps 764 mmHg 94%
22:00 +6°C° 0 mm 1 mps 764 mmHg 94%
23:00 +6°C° 0 mm 1 mps 764 mmHg 94%

1 November, Sunday

Time Temperature Precipitation Wind Pressure Humidity
00:00 +6°C° 0 mm 1 mps 764 mmHg 94%
01:00 +5°C° 0 mm 2 mps 764 mmHg 95%
02:00 +5°C° 0 mm 2 mps 764 mmHg 95%
03:00 +4°C° 0 mm 2 mps 764 mmHg 95%
04:00 +4°C° 0 mm 2 mps 764 mmHg 95%
05:00 +4°C° 0 mm 2 mps 764 mmHg 95%
06:00 +5°C° 0 mm 2 mps 764 mmHg 94%
07:00 +5°C° 0 mm 2 mps 764 mmHg 93%
08:00 +6°C° 0 mm 2 mps 764 mmHg 92%
09:00 +7°C° 0 mm 2 mps 764 mmHg 89%
10:00 +8°C° 0 mm 2 mps 764 mmHg 86%
11:00 +8°C° 0 mm 2 mps 764 mmHg 84%
12:00 +9°C° 0 mm 3 mps 764 mmHg 81%
13:00 +9°C° 0 mm 3 mps 763 mmHg 79%
14:00 +10°C° 0 mm 3 mps 763 mmHg 76%
15:00 +9°C° 0 mm 3 mps 763 mmHg 80%
16:00 +8°C° 0 mm 3 mps 762 mmHg 84%
17:00 +7°C° 0 mm 3 mps 762 mmHg 89%
18:00 +7°C° 0 mm 3 mps 762 mmHg 89%
19:00 +7°C° 0 mm 3 mps 762 mmHg 89%
20:00 +7°C° 0 mm 3 mps 762 mmHg 90%
21:00 +5°C° 0 mm 3 mps 761 mmHg 90%
22:00 +5°C° 0 mm 4 mps 761 mmHg 90%
23:00 +5°C° 0 mm 4 mps 761 mmHg 90%

2 November, Monday

Time Temperature Precipitation Wind Pressure Humidity
00:00 +5°C° 0 mm 4 mps 761 mmHg 88%
01:00 +5°C° 0 mm 4 mps 760 mmHg 87%
02:00 +4°C° 0 mm 4 mps 760 mmHg 85%
03:00 +4°C° 0 mm 4 mps 760 mmHg 85%
04:00 +3°C° 0 mm 5 mps 759 mmHg 85%
05:00 +3°C° 0 mm 5 mps 759 mmHg 85%
06:00 +3°C° 0 mm 5 mps 759 mmHg 85%
07:00 +4°C° 0 mm 4 mps 758 mmHg 85%
08:00 +4°C° 0 mm 4 mps 758 mmHg 86%
09:00 +3°C° 0 mm 5 mps 758 mmHg 84%
10:00 +5°C° 0 mm 5 mps 758 mmHg 82%
11:00 +6°C° 0 mm 5 mps 758 mmHg 81%
12:00 +7°C° 0 mm 5 mps 758 mmHg 81%
13:00 +7°C° 0 mm 5 mps 758 mmHg 82%
14:00 +7°C° 0 mm 5 mps 758 mmHg 82%
15:00 +7°C° 0 mm 5 mps 758 mmHg 83%
16:00 +7°C° 0 mm 5 mps 758 mmHg 85%
17:00 +7°C° 0 mm 5 mps 758 mmHg 86%
18:00 +7°C° 0 mm 5 mps 758 mmHg 86%
19:00 +8°C° 0 mm 5 mps 758 mmHg 86%
20:00 +8°C° 0 mm 5 mps 758 mmHg 86%
21:00 +8°C° 0 mm 5 mps 758 mmHg 86%
22:00 +8°C° 0 mm 5 mps 758 mmHg 85%
23:00 +8°C° 0 mm 5 mps 759 mmHg 85%
Show more